{"data":{"norad_id":51648,"epoch":"2026-05-25T03:05:43.745856Z","epoch_age_seconds":78000,"freshness":"FRESH","line1":"1 51648U 22012AC  26145.12897854 -.00000628  00000+0 -18366-2 0  9996","line2":"2 51648  87.8863  40.8478 0001989  78.4009 281.7341 13.10374762206280","mean_motion":13.10374762,"eccentricity":0.0001989,"inclination_deg":87.8863,"raan_deg":40.8478,"arg_perigee_deg":78.4009,"mean_anomaly_deg":281.7341,"bstar":-0.0018366,"rev_number":20628,"period_min":109.8922263889,"perigee_km":1220.1980209302,"apogee_km":1223.2212399198,"semimajor_km":7599.846630425,"source":"CELESTRAK","updated_at":"2026-05-25T13:38:22.581835Z"}}